Content
SEND FEEDBACK

Daily
Averages
Monthly
Summary
United States of America

ANN ARBOR, MICHIGAN


Home > North America > United States > Michigan
Elevation: 231 meters     Latitude: 42 17N     Longitude: 083 43W

WEATHER
 
SELECT A DAY
Number of Records: 203,193;   Date Range: 1/1/95 - 7/23/14
 
SHARE

PRINT THIS DATA

[ ← Previous Day ]
WEATHER ALMANAC - 17 FEBRUARY, 2013
[ Next Day → ]
[ °F ]   °C
Weather ElementAverageHighLow
Temperature-8.4 °C-3.9 °C (2:53 pm)-12.2 °C (6:53 am)
Dewpoint-14.4 °C-11 °C (1:20 am)-17.2 °C (4:53 pm)
Humidity65 %88 % (12:53 am)39 % (4:53 pm)
Barometer1021.3 hPa1023.7 hPa (9:53 pm)1017.3 hPa (1:20 am)
Wind Speed11.9 km/h27.8 km/h (12:53 pm)
Wind Gust31.5 km/h (1:53 pm)
Weather ElementAverage
Visibility15.3 km
Wind DirectionWSW (258.5 °)

Weather ElementTotal
Precipitation---
Heating Degree Days26.4 (Base 18.3)
Averaged from 26 records on 17 February, 2013
WEATHER CONDITIONS BREAKOUT
WIND DIRECTION BREAKOUT
WEATHER BY HOUR - 17 FEBRUARY, 2013
[ °F ]   °C
Local TimeTemperatureDewpointHumidityBarometerVisibilityWind DirectionWind SpeedGust SpeedPrecipitationEventsConditions
12:53 AM-9.4 °C-11.1 °C88 %1018.6 hPa14.5 kmWNW (300°)13 km/hOvercast
1:20 AM-9 °C-11 °C86 %1017.3 hPa8 kmWNW (300°)13 km/h0 mmSnowLight Snow
1:53 AM-8.9 °C-11.1 °C84 %1019 hPa6.4 kmNW (310°)13 km/h0 mmSnowLight Snow
2:21 AM-9 °C-11 °C86 %1017.6 hPa16.1 kmNNW (330°)13 km/h0 mmScattered Clouds
2:53 AM-9.4 °C-11.7 °C84 %1019 hPa16.1 kmNNW (340°)13 km/h0 mmClear
3:15 AM-9 °C-12 °C79 %1017.6 hPa14.5 kmNorth (350°)7.4 km/hPartly Cloudy
3:53 AM-10 °C-13.9 °C74 %1019.3 hPa16.1 kmNorth (360°)14.8 km/hClear
4:53 AM-11.1 °C-14.4 °C77 %1020 hPa16.1 kmNNW (340°)11.1 km/hClear
5:53 AM-11.7 °C-15.6 °C73 %1020.7 hPa16.1 kmNNW (330°)7.4 km/hClear
6:53 AM-12.2 °C-16.1 °C73 %1021.3 hPa16.1 kmNW (320°)9.3 km/hClear
7:53 AM-12.2 °C-16.1 °C73 %1022 hPa16.1 kmNW (320°)7.4 km/hClear
8:53 AM-10 °C-15 °C67 %1022.4 hPa16.1 kmNW (320°)14.8 km/hClear
9:53 AM-8.3 °C-15 °C59 %1022.4 hPa16.1 kmWNW (300°)20.4 km/hClear
10:53 AM-6.7 °C-15 °C52 %1023 hPa16.1 kmNNW (340°)14.8 km/hClear
11:53 AM-5.6 °C-15 °C48 %1023.4 hPa16.1 kmNNW (330°)24.1 km/hClear
12:53 PM-5 °C-15.6 °C44 %1022.7 hPa16.1 kmNNW (330°)27.8 km/hClear
1:53 PM-4.4 °C-15.6 °C42 %1022.7 hPa16.1 kmNW (320°)24.1 km/h31.5 km/hScattered Clouds
2:53 PM-3.9 °C-15.6 °C41 %1022.7 hPa16.1 kmNNW (330°)13 km/hOvercast
3:53 PM-5 °C-16.7 °C40 %1022.7 hPa16.1 kmVariable7.4 km/h25.9 km/hMostly Cloudy
4:53 PM-5 °C-17.2 °C39 %1022.7 hPa16.1 kmWest (280°)24.1 km/hMostly Cloudy
5:53 PM-5.6 °C-16.7 °C42 %1023 hPa16.1 kmWest (280°)9.3 km/hScattered Clouds
6:53 PM-7.2 °C-15 °C54 %1023.4 hPa16.1 kmWNW (290°)5.6 km/hMostly Cloudy
7:53 PM-11.1 °C-15 °C73 %1023.4 hPa16.1 kmCalmClear
8:53 PM-10 °C-15 °C67 %1023.4 hPa16.1 kmCalmClear
9:53 PM-11.1 °C-14.4 °C77 %1023.7 hPa16.1 kmCalmClear
10:53 PM-9.4 °C-14.4 °C68 %1023.4 hPa16.1 kmCalmClear
Hourly data recorded from KARB, located 0 kilometers away from Ann Arbor, Michigan







STORIES FROM OUR PARTNERS